This is the latest recevied weather packets stored in our database for station/object WX6HNX-14. If no packets are shown the sender has not sent any weather packets the latest 10 day(s).
| Time | Temp. | Humidity | Pressure | Rain* | Wind** | Luminosity | Snow |
|---|---|---|---|---|---|---|---|
| 1778193722 | 30° C | 38% | 1014.3 hPa | 0 mm | - | - | - |
| 1778193422 | 30° C | 37% | 1014.3 hPa | 0 mm | - | - | - |
| 1778192970 | 29.44° C | 38% | 1014.4 hPa | 0 mm | - | - | - |
| 1778192670 | 30° C | 37% | 1014.5 hPa | 0 mm | - | - | - |
| 1778192370 | 29.44° C | 37% | 1014.5 hPa | 0 mm | - | - | - |
| 1778192070 | 29.44° C | 37% | 1014.6 hPa | 0 mm | - | - | - |
| 1778191770 | 29.44° C | 37% | 1014.8 hPa | 0 mm | - | - | - |
| 1778191471 | 29.44° C | 38% | 1014.9 hPa | 0 mm | - | - | - |
| 1778190994 | 28.89° C | 38% | 1014.9 hPa | 0 mm | - | - | - |
| 1778190693 | 28.89° C | 39% | 1014.9 hPa | 0 mm | - | - | - |
| 1778190394 | 28.89° C | 39% | 1015.1 hPa | 0 mm | - | - | - |
| 1778189791 | 28.89° C | 39% | 1015.2 hPa | 0 mm | - | - | - |
| 1778189492 | 28.33° C | 39% | 1015.2 hPa | 0 mm | - | - | - |
| 1778189192 | 28.33° C | 39% | 1015.3 hPa | 0 mm | - | - | - |
| 1778188891 | 28.33° C | 39% | 1015.4 hPa | 0 mm | - | - | - |
| 1778188591 | 28.33° C | 39% | 1015.6 hPa | 0 mm | - | - | - |
| 1778188292 | 28.33° C | 39% | 1015.5 hPa | 0 mm | - | - | - |
| 1778187992 | 28.89° C | 39% | 1015.6 hPa | 0 mm | - | - | - |
| 1778187691 | 28.89° C | 39% | 1015.6 hPa | 0 mm | - | - | - |
| 1778187391 | 28.33° C | 39% | 1015.6 hPa | 0 mm | - | - | - |
| 1778187091 | 28.33° C | 41% | 1015.7 hPa | 0 mm | - | - | - |
| 1778186792 | 28.33° C | 40% | 1015.7 hPa | 0 mm | - | - | - |
| 1778186491 | 27.78° C | 40% | 1015.8 hPa | 0 mm | - | - | - |
| 1778186191 | 27.78° C | 41% | 1015.9 hPa | 0 mm | - | - | - |
| 1778185892 | 27.78° C | 41% | 1016 hPa | 0 mm | - | - | - |
* Rain latest hour (hover to see other rain measurements)
** Current wind speed in m/s (hover to see current wind gust speed)